Über Lemur-2 Leia-Philip
Group: 3 satellites
Beschreibung wird geladen...
Live-Position
3D-Globus wird geladen...
Nächste Überflüge
Höhenverlauf
Altitude vs Time
uPlot chart will show altitude changes over time
Zweizeiliger Elementsatz
1 63246U 25052AN 25340.63787291 .00011643 00000-0 10642-2 0 9992
2 63246 97.7029 230.7886 0004823 132.8051 227.3576 14.95162998 39871
Epoch: 6. Dez. 2025 •
Age: 18 hours
Aktueller Status
Höhe 589.0 km
Geschwindigkeit 7.57 km/s
Subsatellitenpunkt 61.29°N,
153.18°W
Startdatum 15. März 2025
Alter 0.7 years
Typ other
Technische Details
Klassifizierung Payload
Masse 10.00 kg
Trockenmasse 10.00 kg
Gesamtmasse 10.00 kg
Länge 0.30 m
Durchmesser 0.20 m
Spannweite 0.30 m
Form Box
Hersteller SPIREG
Bus-Typ Cubesat 6U
Phasenstatus In Orbit
Besitzer/Staat SPIRE/US
Große Konstellationen
Loading constellations...